Location: Bernay
(48.6766°N, 2.9386°E)
Time: 17:42:56
(UTC+00:00)

Okean 2 - Pass Details

Date: 12 January 2026
Orbit: 515 x 525 km, 82.5° (Epoch: 16 February)

Event Time Altitude Azimuth Distance (km) Brightness Sun altitude
Rises 18:56:50 0° 200° (SSW) 2,645 7.1 -25.8°
Reaches altitude 10° 18:59:00 10° 206° (SSW) 1,760 6.2 -26.2°
Enters shadow 19:01:53 41° 238° (WSW) 769 4.4 -26.6°
